Latest Weather Observations for Westmere

IDV60801

Issued at 10:05 pm EST Monday 22 September 2014 (issued every 30 minutes, with the page automatically refreshed every 10 minutes)

About weather observations | Map of weather stations | Latest weather observations for VIC | Other Formats
Station Details ID: 089112 Name: WESTMERE Lat: -37.71 Lon: 142.94 Height: 226.0 m
Data from the previous 72 hours. | See also: Recent months at Westmere
Date/Time
EST
Temp
°C
App
Temp
°C
Dew
Point
Rel
Hum
%
Delta-T
°C
Wind Press
QNH
hPa
Press
MSL
hPa
Rain
since 9 am
mm
Dir
 
Spd
km/h
Gust
km/h
Spd
kts
Gust
kts
22/10:00pm 5.3 2.8 3.8 90 0.6 NNE 6 7 3 4 1026.8 1027.0 0.0
22/09:30pm 5.6 3.0 4.1 90 0.6 NE 7 9 4 5 1026.9 1027.1 0.0
22/09:00pm 5.3 2.9 4.1 92 0.5 NNE 6 7 3 4 1026.8 1027.0 0.0
22/08:30pm 6.6 4.2 4.3 85 1.0 NNE 6 6 3 3 1026.6 1026.8 0.0
22/08:00pm 7.3 4.1 5.3 87 0.9 NNE 11 11 6 6 1026.4 1026.6 0.0
22/07:30pm 7.6 5.2 5.1 84 1.1 NNE 7 9 4 5 1026.1 1026.4 0.0
22/07:00pm 9.3 7.1 6.2 81 1.4 NE 7 7 4 4 1025.8 1026.1 0.0
22/06:30pm 11.3 9.4 6.8 74 2.2 NNE 6 7 3 4 1025.6 1025.9 0.0
22/06:00pm 13.9 11.9 8.7 71 2.6 NNE 9 11 5 6 1025.4 1025.6 0.0
22/05:30pm 17.5 16.1 9.4 59 4.3 NNE 7 9 4 5 1025.2 1025.4 0.0
22/05:00pm 19.2 17.4 7.9 48 5.8 N 7 11 4 6 1025.1 1025.3 0.0
22/04:30pm 20.2 17.5 5.4 38 7.4 N 9 13 5 7 1025.1 1025.3 0.0
22/04:00pm 20.6 17.4 5.0 36 7.7 N 11 19 6 10 1025.2 1025.4 0.0
22/03:30pm 20.7 17.1 5.1 36 7.7 N 13 20 7 11 1025.2 1025.4 0.0
22/03:00pm 21.0 18.0 6.2 38 7.5 N 11 24 6 13 1025.5 1025.8 0.0
22/02:30pm 21.0 18.0 5.8 37 7.7 N 11 19 6 10 1025.8 1026.1 0.0
22/02:00pm 20.6 16.7 5.4 37 7.5 N 15 22 8 12 1026.0 1026.3 0.0
22/01:30pm 20.4 17.4 6.0 39 7.3 N 11 17 6 9 1026.5 1026.7 0.0
22/01:00pm 20.2 17.5 7.2 43 6.7 N 11 19 6 10 1026.8 1027.0 0.0
22/12:30pm 19.5 16.4 7.3 45 6.3 N 13 22 7 12 1027.3 1027.5 0.0
22/12:00pm 18.8 15.4 7.6 48 5.7 N 15 22 8 12 1027.8 1028.0 0.0
22/11:30am 18.4 14.7 7.8 50 5.5 N 17 20 9 11 1028.3 1028.5 0.0
22/11:00am 17.7 13.6 8.0 53 5.0 N 19 22 10 12 1028.3 1028.5 0.0
22/10:30am 16.8 13.4 9.0 60 4.1 N 17 24 9 13 1028.5 1028.7 0.0
22/10:00am 16.0 12.6 9.2 64 3.5 N 17 26 9 14 1028.9 1029.1 0.0
22/09:30am 14.4 11.1 9.4 72 2.6 N 17 24 9 13 1028.9 1029.1 0.0
22/09:00am 12.5 10.5 10.2 86 1.2 N 11 17 6 9 1028.9 1029.1 0.0
22/08:30am 9.7 7.9 9.6 99 0.1 NNE 9 13 5 7 1029.0 1029.2 0.0
22/08:00am 5.7 3.6 5.7 100 0.0 NE 6 7 3 4 1029.0 1029.2 0.0
22/07:30am 2.3 -0.5 2.2 99 0.0 NE 6 7 3 4 1028.9 1029.1 0.0
22/07:00am -0.2 -3.6 -0.3 99 0.0 NE 7 7 4 4 1028.7 1028.9 0.0
22/06:30am -0.9 -4.2 -1.0 99 0.0 NE 6 7 3 4 1028.5 1028.7 0.0
22/06:00am -1.6 -5.0 -1.7 99 0.0 NE 6 7 3 4 1028.2 1028.4 0.0
22/05:30am -1.3 -4.2 -1.4 99 0.0 NE 4 4 2 2 1028.1 1028.3 0.0
22/05:00am -1.3 -4.6 -1.4 99 0.0 NE 6 6 3 3 1027.9 1028.1 0.0
22/04:30am -1.1 -4.0 -1.2 99 0.0 ENE 4 4 2 2 1027.7 1027.9 0.0
22/04:00am -1.1 -4.4 -1.2 99 0.0 ENE 6 7 3 4 1027.6 1027.8 0.0
22/03:30am -1.0 -4.3 -1.1 99 0.0 ENE 6 7 3 4 1027.7 1027.9 0.0
22/03:00am -1.0 -4.3 -1.1 99 0.0 ENE 6 6 3 3 1027.8 1028.0 0.0
22/02:30am -0.7 -2.8 -0.8 99 0.0 CALM 0 0 0 0 1028.3 1028.5 0.0
22/02:00am -0.4 -2.5 -0.5 99 0.0 CALM 0 0 0 0 1028.5 1028.7 0.0
22/01:30am 0.1 -1.9 0.0 99 0.0 CALM 0 0 0 0 1028.7 1028.9 0.0
22/01:00am -0.2 -3.0 -0.3 99 0.0 ENE 4 6 2 3 1028.6 1028.8 0.0
22/12:30am 0.6 -2.1 0.5 99 0.0 E 4 6 2 3 1028.6 1028.8 0.0
22/12:00am 1.3 -1.6 1.2 99 0.0 E 6 6 3 3 1028.7 1028.9 0.0
 
Date/Time
EST
Temp
°C
App
Temp
°C
Dew
Point
Rel
Hum
%
Delta-T
°C
Wind Press
QNH
hPa
Press
MSL
hPa
Rain
since 9 am
mm
Dir
 
Spd
km/h
Gust
km/h
Spd
kts
Gust
kts
21/11:30pm 1.9 -1.1 1.8 99 0.0 E 7 7 4 4 1029.0 1029.2 0.0
21/11:00pm 3.4 0.8 3.3 99 0.0 E 6 7 3 4 1029.3 1029.6 0.0
21/10:30pm 3.8 1.3 3.7 99 0.0 E 6 9 3 5 1029.4 1029.7 0.0
21/10:00pm 5.3 2.9 5.2 99 0.0 E 7 11 4 6 1029.5 1029.8 0.0
21/09:30pm 6.5 3.6 6.4 99 0.0 E 11 15 6 8 1029.6 1029.9 0.0
21/09:00pm 5.9 2.9 5.8 99 0.0 ESE 11 13 6 7 1029.6 1029.9 0.0
21/08:30pm 4.8 2.9 4.7 99 0.0 SSE 4 6 2 3 1029.7 1030.0 0.0
21/08:00pm 5.5 3.6 4.8 95 0.3 SSE 4 4 2 2 1029.8 1030.1 0.0
21/07:30pm 6.2 4.3 4.8 91 0.6 SSE 4 4 2 2 1029.6 1029.9 0.0
21/07:00pm 7.4 5.2 5.2 86 1.0 SSE 6 6 3 3 1029.3 1029.6 0.0
21/06:30pm 9.4 7.4 7.2 86 1.1 SSE 7 9 4 5 1029.0 1029.2 0.0
21/06:00pm 12.3 10.9 9.0 80 1.7 SE 6 7 3 4 1028.8 1029.0 0.0
21/05:30pm 13.8 12.2 8.6 71 2.6 SE 7 9 4 5 1028.7 1028.9 0.0
21/05:00pm 14.7 12.9 8.0 64 3.4 SE 7 13 4 7 1028.7 1028.9 0.0
21/04:30pm 15.1 13.2 7.6 61 3.8 SSE 7 15 4 8 1028.8 1029.0 0.0
21/04:00pm 15.4 13.5 7.4 59 4.0 SSE 7 11 4 6 1029.1 1029.3 0.0
21/03:30pm 15.4 13.5 7.7 60 3.9 SE 7 13 4 7 1029.3 1029.6 0.0
21/03:00pm 15.5 13.2 7.5 59 4.0 ESE 9 17 5 9 1029.5 1029.8 0.0
21/02:30pm 15.3 13.6 8.5 64 3.5 SE 7 13 4 7 1029.7 1030.0 0.0
21/02:00pm 14.6 12.3 7.6 63 3.5 SE 9 17 5 9 1030.1 1030.4 0.0
21/01:30pm 14.4 12.2 7.9 65 3.3 SE 9 15 5 8 1030.4 1030.7 0.0
21/01:00pm 14.4 11.8 7.9 65 3.2 ESE 11 20 6 11 1030.7 1031.0 0.0
21/12:30pm 13.6 10.5 7.4 66 3.1 SE 13 22 7 12 1031.2 1031.4 0.0
21/12:00pm 13.0 10.0 6.1 63 3.3 ESE 11 20 6 11 1031.6 1031.8 0.0
21/11:30am 13.4 10.8 7.8 69 2.8 SE 11 19 6 10 1031.9 1032.1 0.0
21/11:00am 12.3 9.2 7.4 72 2.4 SE 13 22 7 12 1032.2 1032.4 0.0
21/10:30am 11.9 8.8 7.2 73 2.3 SE 13 19 7 10 1032.3 1032.5 0.0
21/10:00am 11.4 8.1 6.5 72 2.3 ESE 13 19 7 10 1032.1 1032.3 0.0
21/09:30am 10.8 9.1 7.5 80 1.6 ESE 6 11 3 6 1032.0 1032.2 0.0
21/09:00am 8.0 6.4 7.9 99 0.0 SSE 6 9 3 5 1031.8 1032.0 0.0
21/08:30am 6.2 5.3 6.2 100 0.0 CALM 0 0 0 0 1031.6 1031.8 0.0
21/08:00am 2.5 0.9 2.5 100 0.0 CALM 0 0 0 0 1031.4 1031.6 0.0
21/07:30am 0.4 -1.5 0.3 99 0.0 CALM 0 0 0 0 1031.4 1031.6 0.0
21/07:00am -1.1 -3.3 -1.2 99 0.0 CALM 0 0 0 0 1031.1 1031.3 0.0
21/06:30am -1.7 -3.9 -1.8 99 0.0 CALM 0 0 0 0 1030.6 1030.9 0.0
21/06:00am -1.4 -3.6 -1.5 99 0.0 CALM 0 0 0 0 1030.4 1030.7 0.0
21/05:30am -1.2 -3.4 -1.3 99 0.0 CALM 0 0 0 0 1030.3 1030.6 0.0
21/05:00am -1.2 -3.4 -1.3 99 0.0 CALM 0 0 0 0 1030.2 1030.5 0.0
21/04:30am -1.1 -3.3 -1.2 99 0.0 CALM 0 0 0 0 1030.1 1030.4 0.0
21/04:00am -0.9 -3.0 -1.0 99 0.0 CALM 0 0 0 0 1030.0 1030.3 0.0
21/03:30am -0.4 -2.8 -0.5 99 0.0 N 2 4 1 2 1030.0 1030.3 0.0
21/03:00am 0.0 -3.3 -0.1 99 0.0 SE 7 9 4 5 1029.8 1030.1 0.0
21/02:30am 0.4 -1.5 0.3 99 0.0 CALM 0 4 0 2 1030.4 1030.7 0.0
21/02:00am -0.3 -3.1 -0.4 99 0.0 S 4 4 2 2 1030.6 1030.9 0.0
21/01:30am 1.2 -1.8 1.1 99 0.0 S 6 7 3 4 1030.5 1030.8 0.0
21/01:00am 1.1 -1.5 1.0 99 0.0 S 4 6 2 3 1030.6 1030.9 0.0
21/12:30am 0.2 -2.5 0.1 99 0.0 S 4 6 2 3 1030.6 1030.9 0.0
21/12:00am 0.7 -2.0 0.6 99 0.0 S 4 6 2 3 1030.4 1030.7 0.0
 
Date/Time
EST
Temp
°C
App
Temp
°C
Dew
Point
Rel
Hum
%
Delta-T
°C
Wind Press
QNH
hPa
Press
MSL
hPa
Rain
since 9 am
mm
Dir
 
Spd
km/h
Gust
km/h
Spd
kts
Gust
kts
20/11:30pm 1.3 -1.3 1.2 99 0.0 S 4 4 2 2 1030.4 1030.7 0.0
20/11:00pm 1.8 -0.7 1.7 99 0.0 S 4 6 2 3 1030.5 1030.8 0.0
20/10:30pm 2.1 0.4 2.0 99 0.0 CALM 0 0 0 0 1030.1 1030.4 0.0
20/10:00pm 2.8 1.2 2.7 99 0.0 CALM 0 0 0 0 1030.4 1030.7 0.0
20/09:30pm 3.7 2.3 3.6 99 0.0 CALM 0 0 0 0 1030.5 1030.8 0.0
20/09:00pm 3.1 1.6 2.8 98 0.1 CALM 0 0 0 0 1030.4 1030.7 0.0
20/08:30pm 5.2 2.7 4.9 98 0.1 S 7 7 4 4 1030.4 1030.7 0.0
20/08:00pm 6.7 4.1 6.1 96 0.3 S 9 13 5 7 1030.3 1030.6 0.0
20/07:30pm 8.2 5.4 6.8 91 0.7 S 11 17 6 9 1030.0 1030.3 0.0
20/07:00pm 9.4 6.3 7.2 86 1.0 S 13 19 7 10 1029.6 1029.9 0.0
20/06:30pm 10.2 6.7 7.4 83 1.4 S 15 20 8 11 1029.2 1029.5 0.0
20/06:00pm 10.7 7.4 7.9 83 1.4 S 15 24 8 13 1029.0 1029.2 0.0
20/05:30pm 11.7 7.9 7.4 75 2.1 S 17 26 9 14 1028.5 1028.7 0.0
20/05:00pm 13.3 9.5 7.7 69 2.8 S 17 20 9 11 1028.2 1028.4 0.0
20/04:30pm 12.9 9.8 7.1 68 2.8 S 13 19 7 10 1028.0 1028.2 0.0
20/04:00pm 12.8 9.2 6.8 67 2.9 S 15 20 8 11 1027.8 1028.0 0.0
20/03:30pm 13.7 10.2 7.0 64 3.3 SSE 15 19 8 10 1027.7 1027.9 0.0
20/03:00pm 15.0 11.9 7.3 60 3.8 SSW 13 19 7 10 1027.5 1027.7 0.0
20/02:30pm 14.7 12.2 6.5 58 4.0 S 9 17 5 9 1027.4 1027.6 0.0
20/02:00pm 13.7 10.3 5.8 59 3.8 S 13 20 7 11 1027.5 1027.7 0.0
20/01:30pm 14.3 11.3 5.9 57 4.1 S 11 17 6 9 1027.6 1027.8 0.0
20/01:00pm 13.8 10.8 6.2 60 3.6 S 11 19 6 10 1027.7 1027.9 0.0
20/12:30pm 12.9 10.0 4.8 58 3.8 S 9 19 5 10 1028.1 1028.3 0.0
20/12:00pm 13.0 9.7 6.4 64 3.2 SSE 13 19 7 10 1028.3 1028.5 0.0
20/11:30am 13.7 10.9 7.0 64 3.3 S 11 19 6 10 1028.5 1028.7 0.0
20/11:00am 12.9 10.0 6.3 64 3.2 SSE 11 20 6 11 1028.7 1028.9 0.0
20/10:30am 11.6 8.5 5.5 66 2.9 SSE 11 20 6 11 1028.9 1029.1 0.0
20/10:00am 10.1 8.4 8.2 88 0.9 S 7 11 4 6 1028.9 1029.1 0.0
20/09:30am 8.8 7.8 8.8 100 0.0 SW 4 9 2 5 1029.1 1029.3 0.0
20/09:00am 7.5 6.9 7.5 100 0.0 CALM 0 0 0 0 1028.9 1029.1 0.4
20/08:30am 5.6 4.6 5.6 100 0.0 CALM 0 0 0 0 1028.6 1028.8 0.4
20/08:00am 3.1 1.6 3.1 100 0.0 CALM 0 0 0 0 1028.4 1028.6 0.4
20/07:30am 0.9 -0.9 0.9 100 0.0 CALM 0 0 0 0 1028.1 1028.3 0.4
20/07:00am -0.3 -2.3 -0.4 99 0.0 CALM 0 0 0 0 1027.8 1028.0 0.2
20/06:30am -0.6 -2.7 -0.7 99 0.0 CALM 0 0 0 0 1027.5 1027.7 0.2
20/06:00am -0.1 -2.1 -0.1 100 0.0 CALM 0 0 0 0 1027.1 1027.3 0.2
20/05:30am 0.7 -1.6 0.7 100 0.0 NW 2 4 1 2 1026.9 1027.1 0.2
20/05:00am 0.4 -1.9 0.4 100 0.0 NW 2 4 1 2 1026.2 1026.5 0.2
20/04:30am 0.5 -2.2 0.5 100 0.0 NW 4 6 2 3 1025.9 1026.2 0.2
20/04:00am 0.1 -3.0 0.0 99 0.0 NW 6 7 3 4 1025.8 1026.1 0.2
20/03:30am -0.2 -3.0 -0.3 99 0.0 NW 4 4 2 2 1025.7 1026.0 0.2
20/03:00am -0.3 -3.5 -0.4 99 0.0 NW 6 6 3 3 1025.7 1026.0 0.2
20/02:30am 0.2 -1.8 0.1 99 0.0 CALM 0 0 0 0 1026.0 1026.3 0.2
20/02:00am 0.5 -1.4 0.4 99 0.0 CALM 0 0 0 0 1026.0 1026.3 0.2
20/01:30am 1.0 -0.8 0.9 99 0.0 CALM 0 2 0 1 1026.4 1026.6 0.2
20/01:00am 1.5 -1.0 1.4 99 0.0 NW 4 6 2 3 1026.5 1026.7 0.2
20/12:30am 1.5 -1.0 1.4 99 0.0 NW 4 6 2 3 1026.2 1026.5 0.2
20/12:00am 1.7 -2.1 1.6 99 0.0 NNW 11 11 6 6 1026.2 1026.5 0.2
 
Date/Time
EST
Temp
°C
App
Temp
°C
Dew
Point
Rel
Hum
%
Delta-T
°C
Wind Press
QNH
hPa
Press
MSL
hPa
Rain
since 9 am
mm
Dir
 
Spd
km/h
Gust
km/h
Spd
kts
Gust
kts
19/11:30pm 0.4 -1.5 0.3 99 0.0 CALM 0 0 0 0 1025.9 1026.2 0.2
19/11:00pm 1.2 -0.6 1.1 99 0.0 CALM 0 4 0 2 1026.2 1026.5 0.2
19/10:30pm 2.6 0.3 2.5 99 0.0 WSW 4 6 2 3 1026.2 1026.5 0.2

Other Formats:

Comma delimited format used in spreadsheet applications
http://www.bom.gov.au/fwo/IDV60801/IDV60801.95840.axf

JavaScript Object Notation format (JSON) in row-major order
http://www.bom.gov.au/fwo/IDV60801/IDV60801.95840.json